Station History

Weather Underground - logo

Station Historical Data
Daily Summary for January 10, 2018 Units:  Metric    English   Both
« Previous Day
Next Day »
Daily Weekly Monthly Yearly Custom
  High: Low: Average:
Temperature: 16.7 °C 7.6 °C 12.1 °C
Dew Point: 11.8 °C 6.9 °C 10.1 °C
Humidity: 96 % 73 % 88 %
Wind Speed: 9.7 km/h 0 km/h 2.4 km/h
Wind Gust: 9.7 km/h - -
Wind:- - WNW
Pressure: 1024.3 hPa 1012.8 hPa -
Precipitation: 0 mm    
Historical Graphs
 
 
Tabular Data for January 10, 2018
Time Temperature Dew Point Pressure Wind Wind Speed Wind Gust Humidity Rainfall Rate (Hourly)
00:05 10.8 °C 9.7 °C 1012.8 hPa Calm     93 % 0 mm
00:16 10.7 °C 9.6 °C 1013.1 hPa Calm     93 % 0 mm
00:49 10.9 °C 10.1 °C 1014.1 hPa Calm     95 % 0 mm
01:06 11.2 °C 10.3 °C 1014.4 hPa Calm     94 % 0 mm
01:24 11.4 °C 10.3 °C 1014.4 hPa Calm     93 % 0 mm
02:11 11.4 °C 10.1 °C 1015.1 hPa Calm     92 % 0 mm
02:31 11.3 °C 10.1 °C 1015.1 hPa Calm     92 % 0 mm
02:52 11 °C 9.9 °C 1015.1 hPa Calm     93 % 0 mm
03:00 10.8 °C 9.7 °C 1015.1 hPa NW 1.9 km/h 1.9 km/h 93 % 0 mm
03:24 10.6 °C 9.7 °C 1015.5 hPa Calm     94 % 0 mm
03:41 10.8 °C 9.8 °C 1015.5 hPa Calm     94 % 0 mm
03:55 10.4 °C 9.4 °C 1015.5 hPa Calm     94 % 0 mm
04:12 9.9 °C 8.9 °C 1015.8 hPa Calm     94 % 0 mm
05:03 10.6 °C 10 °C 1016.1 hPa Calm     96 % 0 mm
05:09 10.7 °C 10.1 °C 1016.1 hPa Calm     96 % 0 mm
05:24 10.7 °C 10.1 °C 1016.5 hPa Calm     96 % 0 mm
05:40 10.9 °C 10.2 °C 1016.8 hPa Calm     95 % 0 mm
05:56 11.1 °C 10.3 °C 1017.2 hPa NW 1.6 km/h 1.6 km/h 95 % 0 mm
06:02 11.1 °C 10.3 °C 1017.2 hPa NW 1.9 km/h   95 % 0 mm
06:11 11.1 °C 10.3 °C 1017.5 hPa NNE 1.9 km/h 1.9 km/h 95 % 0 mm
06:22 11.2 °C 10.2 °C 1017.5 hPa NNW 3.2 km/h 3.2 km/h 94 % 0 mm
06:24 11.2 °C 10.2 °C 1017.8 hPa NW 1.9 km/h 1.9 km/h 94 % 0 mm
06:29 11.2 °C 10.2 °C 1017.8 hPa Calm     94 % 0 mm
06:38 11.2 °C 10.4 °C 1017.8 hPa Calm   0.3 km/h 95 % 0 mm
06:44 11.2 °C 10.4 °C 1018.2 hPa NW 1.9 km/h 1.9 km/h 95 % 0 mm
06:52 11.2 °C 10.4 °C 1018.2 hPa NW 1.9 km/h   95 % 0 mm
06:57 11.2 °C 10.4 °C 1018.5 hPa NW 1.9 km/h 1.9 km/h 95 % 0 mm
07:02 11.2 °C 10.4 °C 1018.5 hPa NW 3.7 km/h 3.7 km/h 95 % 0 mm
07:09 11.2 °C 10.4 °C 1018.5 hPa NW 1.9 km/h 1.9 km/h 95 % 0 mm
07:14 11.2 °C 10.3 °C 1018.5 hPa North 5.6 km/h 5.6 km/h 94 % 0 mm
07:19 11.2 °C 10.3 °C 1018.8 hPa NW 1.9 km/h 1.9 km/h 94 % 0 mm
07:26 11.2 °C 10.2 °C 1018.8 hPa NW 1.9 km/h   94 % 0 mm
07:33 11.2 °C 10.2 °C 1018.8 hPa NNW 3.7 km/h 3.7 km/h 94 % 0 mm
07:42 11.2 °C 10.2 °C 1018.8 hPa NW 3.7 km/h 3.7 km/h 94 % 0 mm
07:47 11.1 °C 10.2 °C 1019.2 hPa NW 3.7 km/h 3.7 km/h 94 % 0 mm
07:52 11.1 °C 10.1 °C 1019.2 hPa NW 3.7 km/h 3.7 km/h 94 % 0 mm
07:58 11.1 °C 10.1 °C 1019.2 hPa WNW 3.7 km/h 3.7 km/h 94 % 0 mm
08:08 10.9 °C 10 °C 1018.8 hPa WNW 5.6 km/h 5.6 km/h 94 % 0 mm
08:14 10.9 °C 10 °C 1019.2 hPa NNW 3.7 km/h 3.7 km/h 94 % 0 mm
08:19 10.9 °C 9.8 °C 1019.2 hPa WNW 3.7 km/h 3.7 km/h 93 % 0 mm
08:26 11.1 °C 9.9 °C 1019.5 hPa NW 1.9 km/h 1.9 km/h 93 % 0 mm
08:34 11.2 °C 10.1 °C 1019.5 hPa NW 1.9 km/h 1.9 km/h 93 % 0 mm
08:44 11.4 °C 10.3 °C 1019.9 hPa NW 1.9 km/h 1.9 km/h 93 % 0 mm
08:52 11.7 °C 10.4 °C 1020.2 hPa WNW 3.7 km/h 3.7 km/h 92 % 0 mm
08:58 11.8 °C 10.3 °C 1020.5 hPa NW 3.7 km/h 3.7 km/h 91 % 0 mm
09:05 11.9 °C 10.5 °C 1020.5 hPa NNW 5.6 km/h 5.6 km/h 91 % 0 mm
09:12 12.2 °C 10.6 °C 1020.9 hPa ESE 5.6 km/h 5.6 km/h 90 % 0 mm
09:19 12.3 °C 10.5 °C 1021.2 hPa NE 9.3 km/h 9.3 km/h 89 % 0 mm
09:27 12.4 °C 10.6 °C 1021.6 hPa WNW 5.6 km/h 5.6 km/h 89 % 0 mm
09:32 12.4 °C 10.7 °C 1021.6 hPa NNW 5.6 km/h 5.6 km/h 89 % 0 mm
09:37 12.5 °C 10.7 °C 1021.6 hPa NW 3.7 km/h 3.7 km/h 89 % 0 mm
09:45 12.6 °C 10.6 °C 1021.9 hPa WNW 3.7 km/h 3.7 km/h 88 % 0 mm
09:57 12.8 °C 10.7 °C 1021.9 hPa NW 5.6 km/h 5.6 km/h 87 % 0 mm
10:05 12.9 °C 10.7 °C 1021.9 hPa NW 5.6 km/h 5.6 km/h 86 % 0 mm
10:19 13.4 °C 11.2 °C 1021.9 hPa NNE 1.9 km/h 2.7 km/h 86 % 0 mm
10:28 13.8 °C 11.1 °C 1021.9 hPa NNW 5.6 km/h 5.6 km/h 84 % 0 mm
10:38 13.8 °C 11.1 °C 1021.6 hPa NW 6.4 km/h 6.4 km/h 84 % 0 mm
10:47 14 °C 11.2 °C 1021.6 hPa NNE 5.6 km/h 5.6 km/h 83 % 0 mm
10:56 14.2 °C 11.2 °C 1021.6 hPa NW 5.6 km/h 5.6 km/h 82 % 0 mm
11:10 14.6 °C 11.2 °C 1021.6 hPa NW 7.4 km/h 7.4 km/h 80 % 0 mm
11:34 14.7 °C 11.3 °C 1021.2 hPa NW 5.6 km/h 5.6 km/h 80 % 0 mm
12:00 14.9 °C 11.4 °C 1021.2 hPa WNW 8 km/h 8 km/h 80 % 0 mm
12:19 15.2 °C 11.2 °C 1021.2 hPa WNW 7.4 km/h 7.4 km/h 77 % 0 mm
12:25 15.4 °C 11.4 °C 1021.2 hPa NW 5.6 km/h 5.6 km/h 77 % 0 mm
12:30 15.3 °C 11.5 °C 1021.2 hPa West 5.6 km/h 5.6 km/h 78 % 0 mm
12:35 15.3 °C 11.5 °C 1020.9 hPa NNE 8 km/h 8 km/h 78 % 0 mm
12:52 15.3 °C 11.3 °C 1020.9 hPa WNW 6.4 km/h 6.4 km/h 77 % 0 mm
13:15 15.3 °C 11.3 °C 1020.9 hPa NW 5.6 km/h 5.6 km/h 77 % 0 mm
13:21 15.2 °C 11.2 °C 1020.5 hPa NW 9.7 km/h 9.7 km/h 77 % 0 mm
13:26 15.4 °C 11.2 °C 1020.5 hPa NW 5.6 km/h 5.6 km/h 76 % 0 mm
13:34 15.4 °C 11.2 °C 1020.5 hPa NW 5.6 km/h 5.6 km/h 76 % 0 mm
13:39 15.6 °C 11.4 °C 1020.5 hPa North 7.4 km/h 7.4 km/h 76 % 0 mm
13:56 16.3 °C 11.6 °C 1020.5 hPa NW 8 km/h 8 km/h 74 % 0 mm
14:02 16.5 °C 11.8 °C 1020.5 hPa NNW 5.6 km/h 5.6 km/h 74 % 0 mm
14:08 16.7 °C 11.8 °C 1020.5 hPa NW 5.6 km/h 5.6 km/h 73 % 0 mm
14:21 16.3 °C 11.5 °C 1020.9 hPa NW 5.6 km/h 5.6 km/h 73 % 0 mm
14:27 16.2 °C 11.6 °C 1020.9 hPa NW 5.6 km/h 5.6 km/h 74 % 0 mm
14:36 16.2 °C 11.6 °C 1020.9 hPa NNW 5.6 km/h 5.6 km/h 74 % 0 mm
14:42 16.2 °C 11.4 °C 1020.5 hPa NW 7.4 km/h 7.4 km/h 73 % 0 mm
15:06 16.1 °C 11.4 °C 1020.9 hPa NW 7.4 km/h 7.4 km/h 74 % 0 mm
15:11 16 °C 11.2 °C 1020.9 hPa NW 5.6 km/h 5.6 km/h 73 % 0 mm
15:38 16 °C 11.2 °C 1020.5 hPa NW 5.6 km/h 5.6 km/h 73 % 0 mm
15:45 15.9 °C 11.3 °C 1020.9 hPa NNW 3.7 km/h 3.7 km/h 74 % 0 mm
16:09 15.5 °C 11.3 °C 1020.9 hPa NW 5.6 km/h 5.6 km/h 76 % 0 mm
16:16 15.4 °C 11.2 °C 1020.9 hPa NW 3.7 km/h 3.7 km/h 76 % 0 mm
16:25 15.2 °C 11 °C 1020.9 hPa NW 5.6 km/h 5.6 km/h 76 % 0 mm
16:31 15.2 °C 11.2 °C 1020.9 hPa WNW 5.6 km/h 5.6 km/h 77 % 0 mm
16:37 15.1 °C 11.2 °C 1021.2 hPa NW 3.7 km/h 3.7 km/h 78 % 0 mm
16:46 14.8 °C 11 °C 1021.2 hPa North 5.6 km/h 5.6 km/h 78 % 0 mm
16:52 14.6 °C 10.9 °C 1021.2 hPa WNW 3.7 km/h   79 % 0 mm
17:00 14.3 °C 10.9 °C 1021.2 hPa Calm     80 % 0 mm
17:06 14.1 °C 10.7 °C 1021.2 hPa WNW 1.6 km/h 1.6 km/h 80 % 0 mm
17:09 14.1 °C 10.7 °C 1021.2 hPa WNW 1.9 km/h 1.9 km/h 80 % 0 mm
17:10 14 °C 10.6 °C 1021.2 hPa Calm     80 % 0 mm
17:11 13.9 °C 10.7 °C 1021.2 hPa Calm     81 % 0 mm
17:12 13.9 °C 10.7 °C 1021.2 hPa Calm     81 % 0 mm
17:13 13.9 °C 10.7 °C 1021.2 hPa Calm     81 % 0 mm
17:18 13.7 °C 10.5 °C 1021.2 hPa Calm     81 % 0 mm
17:27 13.3 °C 10.5 °C 1021.6 hPa Calm     83 % 0 mm
17:36 13 °C 10.3 °C 1021.2 hPa Calm     84 % 0 mm
17:43 12.8 °C 10.3 °C 1021.2 hPa Calm     85 % 0 mm
17:50 12.7 °C 10.6 °C 1021.2 hPa Calm     87 % 0 mm
17:56 12.5 °C 10.4 °C 1021.6 hPa Calm     87 % 0 mm
18:02 12.5 °C 10.4 °C 1021.6 hPa Calm     87 % 0 mm
18:07 12.4 °C 10.5 °C 1021.6 hPa Calm     88 % 0 mm
18:14 12.4 °C 10.4 °C 1021.6 hPa Calm     88 % 0 mm
18:19 12.3 °C 10.4 °C 1021.6 hPa Calm     88 % 0 mm
18:25 12.3 °C 10.4 °C 1021.6 hPa Calm     88 % 0 mm
18:26 12.3 °C 10.4 °C 1021.6 hPa Calm     88 % 0 mm
18:45 11.8 °C 10.1 °C 1021.6 hPa Calm     89 % 0 mm
19:00 11.1 °C 9.7 °C 1021.9 hPa Calm     91 % 0 mm
19:24 10.4 °C 9.3 °C 1022.2 hPa Calm     93 % 0 mm
19:32 10.3 °C 9.3 °C 1022.2 hPa Calm     93 % 0 mm
19:46 10.2 °C 9.1 °C 1022.2 hPa Calm     93 % 0 mm
19:57 9.8 °C 8.8 °C 1022.2 hPa Calm     93 % 0 mm
20:03 9.7 °C 8.6 °C 1022.6 hPa Calm     93 % 0 mm
20:09 9.5 °C 8.4 °C 1022.6 hPa Calm     93 % 0 mm
20:21 9.3 °C 8.4 °C 1022.9 hPa Calm     94 % 0 mm
20:27 9.1 °C 8.2 °C 1022.9 hPa Calm     94 % 0 mm
20:35 8.9 °C 8.1 °C 1022.9 hPa Calm     94 % 0 mm
20:47 9 °C 8.1 °C 1022.9 hPa Calm     94 % 0 mm
20:52 9 °C 8.2 °C 1022.9 hPa Calm     95 % 0 mm
20:57 8.9 °C 8.1 °C 1022.9 hPa Calm     94 % 0 mm
21:02 8.9 °C 8.1 °C 1023.2 hPa Calm     95 % 0 mm
21:29 9.2 °C 8.4 °C 1023.2 hPa Calm     95 % 0 mm
21:35 9.1 °C 8.3 °C 1023.2 hPa Calm     95 % 0 mm
21:42 9 °C 8.2 °C 1023.2 hPa Calm     95 % 0 mm
21:58 8.8 °C 8.1 °C 1023.2 hPa Calm     95 % 0 mm
22:23 8.6 °C 7.8 °C 1023.6 hPa Calm     95 % 0 mm
22:29 8.5 °C 7.7 °C 1023.6 hPa Calm     95 % 0 mm
22:42 8.4 °C 7.6 °C 1023.6 hPa Calm     95 % 0 mm
22:52 8.2 °C 7.4 °C 1023.6 hPa Calm     95 % 0 mm
23:09 7.9 °C 7.1 °C 1023.9 hPa Calm     95 % 0 mm
23:21 7.7 °C 6.9 °C 1024.3 hPa Calm     95 % 0 mm
23:30 7.7 °C 6.9 °C 1024.3 hPa Calm     95 % 0 mm
23:35 7.6 °C 6.9 °C 1024.3 hPa Calm     95 % 0 mm
23:46 7.8 °C 7.2 °C 1024.3 hPa Calm     96 % 0 mm
23:52 7.9 °C 7.3 °C 1024.3 hPa Calm     96 % 0 mm
23:57 7.9 °C 7.3 °C 1024.3 hPa Calm     96 % 0 mm
Park Place, Exeter, Tulare County, California, USA
Compliments of Weather Underground - 2 mb